Location: London
(42.9830°N, 81.2500°W)
Time: 01:54:00
(UTC-04:00)

Amateur Radio Satellites - All Passes

Search period start: 22 August 2014 01:24
Search period end: 23 August 2014 01:24
Location: London, 42.9830°N, 81.2500°W

Satellite Date Start Highest point End Downlink Frequencies (MHz)
Time Altitude Azimuth
Saudisat 1A 22 Aug 01:27:12 01:31:18 39° 117° (ESE) 01:35:26 436.775 MHz
Oscar 19 22 Aug 01:49:48 01:52:50 16° 90° (E) 01:55:52 437.125 CW, 437.150 USB
Uribyol 2 22 Aug 02:13:34 02:15:12 11° 88° (E) 02:16:50 436.500 FM
KITSAT 1 22 Aug 02:15:16 02:23:21 79° 119° (ESE) 02:31:28 435.175 FM
Oscar 16 22 Aug 02:21:43 02:26:21 32° 96° (E) 02:30:58 437.025 USB, Beacon 2401.1428
MaSat-1 22 Aug 02:23:51 02:28:08 32° 254° (WSW) 02:31:56 437.345 MHz
AO-27 22 Aug 02:26:17 02:29:13 15° 90° (E) 02:32:08 436.795 MHz FM
PCSat 22 Aug 03:02:59 03:06:13 16° 38° (NE) 03:09:26 145.825 MHz
Saudisat 1A 22 Aug 03:07:14 03:11:00 27° 315° (NW) 03:14:47 436.775 MHz
Oscar 19 22 Aug 03:27:29 03:32:40 68° 287° (WNW) 03:37:49 437.125 CW, 437.150 USB
AO-Echo 22 Aug 03:33:09 03:37:54 69° 102° (ESE) 03:42:33 ?
Gurwin Techsat 1B 22 Aug 03:37:16 03:41:58 31° 96° (E) 03:46:38 435.225 FM
ITAMSAT 1 22 Aug 03:37:37 03:42:47 69° 102° (ESE) 03:47:56 435.822 SSB
JAS-1B 22 Aug 03:42:38 03:50:07 60° 100° (E) 03:56:20 435.800 - 435.900 CW/SSB
Uribyol 2 22 Aug 03:50:08 03:55:21 87° 285° (WNW) 04:00:32 436.500 FM
Oscar 16 22 Aug 04:01:03 04:05:40 33° 293° (WNW) 04:10:17 437.025 USB, Beacon 2401.1428
AO-27 22 Aug 04:04:04 04:09:14 69° 287° (WNW) 04:14:22 436.795 MHz FM
OPAL 22 Aug 04:08:46 04:13:23 39° 66° (ENE) 04:18:04 ?
KITSAT 1 22 Aug 04:12:38 04:19:36 31° 321° (NW) 04:26:35 435.175 FM
Sapphire 22 Aug 04:14:43 04:19:52 42° 52° (NE) 04:24:59 437.095 MHz 1200 baud AX-25 AFSK
TMSAT-1 22 Aug 04:34:51 04:40:10 77° 103° (ESE) 04:45:27 436.925 FM
PCSat 22 Aug 04:45:08 04:50:35 75° 59° (ENE) 04:56:00 145.825 MHz
AO-Echo 22 Aug 05:13:37 05:16:05 14° 300° (WNW) 05:18:33 ?
AO-7 22 Aug 05:14:12 05:21:57 42° 99° (E) 05:29:37 29.400 - 29.500 MHz
Gurwin Techsat 1B 22 Aug 05:17:09 05:21:56 35° 293° (WNW) 05:26:41 435.225 FM
ITAMSAT 1 22 Aug 05:18:30 05:21:44 17° 300° (WNW) 05:24:57 435.822 SSB
Uribyol 2 22 Aug 05:31:53 05:34:02 13° 303° (WNW) 05:36:11 436.500 FM
JAS-1B 22 Aug 05:33:55 05:40:03 27° 304° (WNW) 05:45:25 435.800 - 435.900 CW/SSB
STRAND 1 22 Aug 05:40:21 05:41:51 11° 56° (ENE) 05:43:22 ?
OPAL 22 Aug 05:48:10 05:52:21 27° 263° (W) 05:56:37 ?
Uosat F 22 Aug 05:53:23 05:58:25 84° 104° (ESE) 06:03:25 435.120 FM
Sapphire 22 Aug 05:58:26 06:03:08 31° 250° (WSW) 06:07:49 437.095 MHz 1200 baud AX-25 AFSK
JAS-2 22 Aug 06:06:24 06:07:02 10° 88° (E) 06:07:40 435.800 - 435.900 CW/SSB, 435.910 FM
KITSAT 1 22 Aug 06:14:17 06:18:11 14° 350° (N) 06:22:05 435.175 FM
TMSAT-1 22 Aug 06:16:22 06:19:26 16° 301° (WNW) 06:22:30 436.925 FM
PCSat 22 Aug 06:30:12 06:33:20 16° 256° (WSW) 06:36:27 145.825 MHz
SO-50 22 Aug 06:50:57 06:55:23 69° 121° (ESE) 06:59:56 436.795 FM
Hamsat 22 Aug 06:53:45 06:57:47 35° 97° (E) 07:01:46 145.90 MHz
AO-7 22 Aug 07:06:59 07:14:48 48° 298° (WNW) 07:22:34 29.400 - 29.500 MHz
STRAND 1 22 Aug 07:15:06 07:20:12 80° 74° (ENE) 07:25:19 ?
Uosat F 22 Aug 07:34:09 07:36:30 13° 302° (WNW) 07:38:51 435.120 FM
JAS-2 22 Aug 07:47:42 07:52:54 87° 285° (WNW) 07:58:12 435.800 - 435.900 CW/SSB, 435.910 FM
SO-67 22 Aug 08:02:28 08:05:29 27° 96° (E) 08:08:28 435.3500 MHz FM
UOSAT-12 22 Aug 08:04:03 08:08:06 31° 114° (ESE) 08:12:13 437.025 FM, 437.400 FM
KITSAT 1 22 Aug 08:12:39 08:17:39 17° 21° (NNE) 08:22:38 435.175 FM
Hamsat 22 Aug 08:30:08 08:33:32 23° 293° (WNW) 08:36:55 145.90 MHz
SO-50 22 Aug 08:33:12 08:36:26 19° 321° (NW) 08:39:45 436.795 FM
STRAND 1 22 Aug 08:57:52 08:59:59 12° 271° (W) 09:02:06 ?
AO-7 22 Aug 09:02:59 09:05:32 12° 320° (NW) 09:08:06 29.400 - 29.500 MHz
HO-68 22 Aug 09:33:19 09:39:14 27° 94° (E) 09:45:07 435.675 MHz FM
JAS-2 22 Aug 09:35:37 09:37:14 11° 304° (WNW) 09:38:51 435.800 - 435.900 CW/SSB, 435.910 FM
SO-67 22 Aug 09:35:57 09:38:21 18° 292° (WNW) 09:40:45 435.3500 MHz FM
RS-15 22 Aug 09:36:08 09:46:47 55° 113° (ESE) 09:57:14 29.354 - 29.394 USB, Beacon 29.352 USB
UOSAT-12 22 Aug 09:43:55 09:48:11 35° 313° (NW) 09:52:32 437.025 FM, 437.400 FM
Saudisat 1A 22 Aug 09:52:54 09:57:08 43° 50° (NE) 10:01:19 436.775 MHz
KITSAT 1 22 Aug 10:07:41 10:15:25 46° 48° (NE) 10:23:06 435.175 FM
UKube-1 22 Aug 11:09:05 11:13:26 76° 285° (WNW) 11:17:46 145.840 MHz, 145.915 MHz
HO-68 22 Aug 11:20:20 11:27:20 60° 292° (WNW) 11:34:19 435.675 MHz FM
FUNcube-1 22 Aug 11:24:58 11:29:08 39° 98° (E) 11:33:23 145.950 - 145.970 MHz USB
Oscar 11 22 Aug 11:25:10 11:29:33 81° 284° (WNW) 11:33:55 145.825 FM, Beacon 2401.500 USB
Saudisat 1A 22 Aug 11:33:02 11:36:27 22° 247° (WSW) 11:39:52 436.775 MHz
RS-15 22 Aug 11:48:43 11:59:17 50° 317° (NW) 12:09:51 29.354 - 29.394 USB, Beacon 29.352 USB
KITSAT 1 22 Aug 12:03:15 12:10:50 46° 249° (WSW) 12:18:23 435.175 FM
JAS-1B 22 Aug 12:39:35 12:45:12 17° 49° (NE) 12:50:33 435.800 - 435.900 CW/SSB
FUNcube-1 22 Aug 13:01:58 13:05:18 21° 294° (WNW) 13:08:40 145.950 - 145.970 MHz USB
Oscar 19 22 Aug 13:07:14 13:11:24 26° 64° (ENE) 13:15:36 437.125 CW, 437.150 USB
HO-68 22 Aug 13:10:46 13:13:36 13° 312° (NW) 13:16:26 435.675 MHz FM
AO-Echo 22 Aug 13:11:10 13:13:38 14° 60° (ENE) 13:16:05 ?
ITAMSAT 1 22 Aug 13:19:52 13:22:55 16° 60° (ENE) 13:25:58 435.822 SSB
Uribyol 2 22 Aug 13:31:22 13:35:09 21° 62° (ENE) 13:38:57 436.500 FM
Oscar 16 22 Aug 13:39:29 13:44:26 51° 71° (ENE) 13:49:26 437.025 USB, Beacon 2401.1428
SO-50 22 Aug 13:42:14 13:45:05 16° 36° (NE) 13:47:58 436.795 FM
AO-27 22 Aug 13:44:54 13:49:10 27° 65° (ENE) 13:53:26 436.795 MHz FM
ISS 22 Aug 13:51:59 13:54:25 19° 134° (SE) 13:56:52 145.800 FM
RS-15 22 Aug 14:06:44 14:15:09 24° 349° (N) 14:23:38 29.354 - 29.394 USB, Beacon 29.352 USB
TMSAT-1 22 Aug 14:19:00 14:22:31 18° 61° (ENE) 14:26:03 436.925 FM
JAS-1B 22 Aug 14:24:21 14:34:03 63° 69° (ENE) 14:43:09 435.800 - 435.900 CW/SSB
AO-7 22 Aug 14:26:33 14:30:51 15° 44° (NE) 14:35:09 29.400 - 29.500 MHz
MaSat-1 22 Aug 14:39:22 14:40:42 11° 97° (E) 14:42:03 437.345 MHz
Oscar 19 22 Aug 14:45:39 14:50:31 42° 262° (W) 14:55:26 437.125 CW, 437.150 USB
AO-Echo 22 Aug 14:46:35 14:51:46 84° 256° (WSW) 14:56:49 ?
ITAMSAT 1 22 Aug 14:56:38 15:01:48 74° 257° (WSW) 15:07:00 435.822 SSB
Gurwin Techsat 1B 22 Aug 14:59:08 15:04:17 54° 71° (ENE) 15:09:27 435.225 FM
Uribyol 2 22 Aug 15:09:13 15:14:15 53° 260° (W) 15:19:18 436.500 FM
Oscar 16 22 Aug 15:20:18 15:24:04 21° 268° (W) 15:27:53 437.025 USB, Beacon 2401.1428
SO-50 22 Aug 15:21:37 15:26:25 80° 55° (NE) 15:31:16 436.795 FM
AO-27 22 Aug 15:23:36 15:28:28 41° 262° (W) 15:33:22 436.795 MHz FM
ISS 22 Aug 15:27:36 15:30:53 58° 331° (NNW) 15:34:11 145.800 FM
Uosat F 22 Aug 15:31:08 15:34:19 17° 61° (ENE) 15:37:30 435.120 FM
TMSAT-1 22 Aug 15:56:40 16:01:55 65° 258° (WSW) 16:07:12 436.925 FM
MaSat-1 22 Aug 16:12:06 16:16:52 89° 115° (ESE) 16:22:04 437.345 MHz
AO-7 22 Aug 16:13:50 16:21:59 61° 65° (ENE) 16:30:08 29.400 - 29.500 MHz
JAS-1B 22 Aug 16:15:50 16:24:45 37° 266° (W) 16:33:20 435.800 - 435.900 CW/SSB
RS-15 22 Aug 16:23:03 16:32:20 30° 25° (NNE) 16:41:48 29.354 - 29.394 USB, Beacon 29.352 USB
UOSAT-12 22 Aug 16:32:22 16:36:48 37° 48° (NE) 16:41:09 437.025 FM, 437.400 FM
Gurwin Techsat 1B 22 Aug 16:40:43 16:44:34 20° 268° (W) 16:48:26 435.225 FM
SO-50 22 Aug 17:04:07 17:06:22 13° 252° (WSW) 17:08:38 436.795 FM
ISS 22 Aug 17:05:34 17:08:08 20° 350° (N) 17:10:42 145.800 FM
Uosat F 22 Aug 17:07:36 17:12:35 65° 258° (WSW) 17:17:35 435.120 FM
Hamsat 22 Aug 17:48:09 17:51:50 29° 69° (ENE) 17:55:33 145.90 MHz
MaSat-1 22 Aug 17:51:39 17:54:47 16° 316° (NW) 17:58:00 437.345 MHz
OPAL 22 Aug 17:55:52 18:01:06 73° 105° (ESE) 18:06:18 ?
JAS-2 22 Aug 18:00:05 18:06:20 46° 70° (ENE) 18:11:54 435.800 - 435.900 CW/SSB, 435.910 FM
AO-7 22 Aug 18:07:58 18:15:10 32° 264° (W) 18:22:25 29.400 - 29.500 MHz
UOSAT-12 22 Aug 18:12:45 18:16:50 30° 246° (WSW) 18:20:52 437.025 FM, 437.400 FM
RS-15 22 Aug 18:35:49 18:46:54 75° 53° (NE) 18:58:24 29.354 - 29.394 USB, Beacon 29.352 USB
SO-67 22 Aug 18:38:10 18:39:31 12° 65° (ENE) 18:40:53 435.3500 MHz FM
ISS 22 Aug 18:43:07 18:45:42 21° 11° (N) 18:48:18 145.800 FM
Sapphire 22 Aug 18:57:59 19:02:37 30° 109° (ESE) 19:07:17 437.095 MHz 1200 baud AX-25 AFSK
Hamsat 22 Aug 19:24:10 19:27:45 26° 265° (W) 19:31:24 145.90 MHz
STRAND 1 22 Aug 19:25:25 19:29:35 25° 94° (E) 19:33:42 ?
PCSat 22 Aug 19:27:37 19:32:54 58° 115° (ESE) 19:38:14 145.825 MHz
OPAL 22 Aug 19:36:08 19:39:23 17° 302° (WNW) 19:42:39 ?
JAS-2 22 Aug 19:45:47 19:51:30 30° 264° (W) 19:56:42 435.800 - 435.900 CW/SSB, 435.910 FM
HO-68 22 Aug 20:03:45 20:09:13 25° 57° (ENE) 20:14:41 435.675 MHz FM
SO-67 22 Aug 20:08:52 20:12:11 44° 261° (W) 20:15:32 435.3500 MHz FM
ISS 22 Aug 20:19:38 20:22:56 60° 30° (NNE) 20:26:14 145.800 FM
UKube-1 22 Aug 20:32:35 20:34:02 12° 60° (ENE) 20:35:29 145.840 MHz, 145.915 MHz
Sapphire 22 Aug 20:40:46 20:45:52 42° 308° (NW) 20:51:02 437.095 MHz 1200 baud AX-25 AFSK
RS-15 22 Aug 20:49:03 20:58:20 32° 255° (WSW) 21:07:56 29.354 - 29.394 USB, Beacon 29.352 USB
STRAND 1 22 Aug 21:04:08 21:08:54 41° 291° (WNW) 21:13:39 ?
PCSat 22 Aug 21:12:16 21:16:42 25° 315° (NW) 21:21:10 145.825 MHz
HO-68 22 Aug 21:49:08 21:56:16 73° 255° (WSW) 22:03:26 435.675 MHz FM
ISS 22 Aug 21:57:00 21:59:23 18° 227° (SW) 22:01:46 145.800 FM
UKube-1 22 Aug 22:05:16 22:09:37 78° 257° (WSW) 22:13:59 145.840 MHz, 145.915 MHz
Oscar 11 22 Aug 22:20:49 22:25:09 88° 76° (ENE) 22:29:31 145.825 FM, Beacon 2401.500 USB
FUNcube-1 22 Aug 22:22:42 22:26:27 34° 70° (ENE) 22:30:14 145.950 - 145.970 MHz USB
Sapphire 22 Aug 22:30:28 22:30:50 10° 330° (NNW) 22:31:11 437.095 MHz 1200 baud AX-25 AFSK
HO-68 22 Aug 23:42:38 23:45:08 12° 274° (W) 23:47:39 435.675 MHz FM
FUNcube-1 22 Aug 23:59:51 00:02:57 20° 267° (W) 00:06:06 145.950 - 145.970 MHz USB
MaSat-1 23 Aug 00:29:36 00:33:54 29° 52° (NE) 00:37:48 437.345 MHz
KITSAT 1 23 Aug 00:38:40 00:44:52 25° 104° (ESE) 00:51:03 435.175 FM
